Location: Heppenheim
(49.6410°N, 8.6370°E)
Time: 16:12:38
(UTC+02:00)

ISS - Pass Details

Date: 07 May 2026
Orbit: 414 x 424 km, 51.6° (Epoch: 10 May)

Event Time Altitude Azimuth Distance (km) Brightness Sun altitude
Exits shadow 03:19:38 24° 289° (WNW) 910 -2.2 -18.7°
Maximum altitude 03:21:30 84° 16° (NNE) 425 -3.8 -18.5°
Drops below altitude 10° 03:24:53 10° 105° (ESE) 1,498 -0.8 -18.2°
Sets 03:26:58 0° 106° (ESE) 2,362 0.3 -18.1°
